Terminal Aerodrome Forecast
Issued by NWS Greer, SC

Home | Current Version | Previous Version | Text Only | Print | Product List | Glossary On
Versions: 1 2 3 4 5 6 7 8 9 10 11 12 13 14 15 16 17 18 19 20 21 22 23 24
000
FTUS42 KGSP 060852 AAA
TAFCLT
TAF AMD
KCLT 060852Z 0609/0706 30006KT P6SM VCSH OVC045
     FM061400 34010KT P6SM FEW060 SCT250
     FM061600 34013G20KT P6SM BKN045
     FM070000 33006KT P6SM BKN150=

USA.gov is the U.S. government's official web portal to all federal, state and local government web resources and services.